DW1105 Weather Reports


time (UTC)temp
C
wind
direction
speed
KPH
gust
KPH
rain 1hr
cm
rain 24hr
cm
rain mn
cm
humidity
%
barometer
mb
20260505200826 28 233 3.2 9.7 0.00 0.00 0.00 33 1006.9
20260505200321 28 194 1.6 8.0 0.00 0.00 0.00 33 1007.0
20260505195821 28 166 3.2 8.0 0.00 0.00 0.00 36 1007.0
20260505195318 27 202 3.2 14.5 0.00 0.00 0.00 35 1006.9
20260505194814 27 49 4.8 14.5 0.00 0.00 0.00 34 1007.2
20260505194329 28 115 4.8 14.5 0.00 0.00 0.00 32 1007.2
20260505193825 28 129 4.8 12.9 0.00 0.00 0.00 34 1007.1
20260505193322 28 60 3.2 14.5 0.00 0.00 0.00 32 1007.3
20260505192818 28 228 3.2 14.5 0.00 0.00 0.00 34 1007.0
20260505192319 28 59 1.6 14.5 0.00 0.00 0.00 33 1007.3
20260505191815 28 38 3.2 14.5 0.00 0.00 0.00 33 1007.4
20260505191311 28 283 4.8 17.7 0.00 0.00 0.00 34 1007.7
20260505190827 28 293 6.4 17.7 0.00 0.00 0.00 32 1007.5
20260505190323 28 105 1.6 17.7 0.00 0.00 0.00 35 1007.4
20260505185820 28 247 1.6 25.7 0.00 0.00 0.00 35 1007.4
20260505185316 28 293 4.8 16.1 0.00 0.00 0.00 35 1007.5
20260505184815 28 171 0.0 22.5 0.00 0.00 0.00 38 1007.6
20260505184311 28 198 3.2 8.0 0.00 0.00 0.00 35 1007.7
20260505183827 28 226 4.8 11.3 0.00 0.00 0.00 36 1007.8
20260505183324 28 221 3.2 8.0 0.00 0.00 0.00 36 1007.9
20260505182820 28 175 1.6 8.0 0.00 0.00 0.00 37 1007.9
20260505182317 28 207 3.2 8.0 0.00 0.00 0.00 34 1008.1
20260505181813 28 199 1.6 8.0 0.00 0.00 0.00 37 1008.0
20260505181313 28 71 3.2 6.4 0.00 0.00 0.00 36 1008.0
20260505180830 28 172 1.6 12.9 0.00 0.00 0.00 38 1008.0
20260505180326 28 191 3.2 12.9 0.00 0.00 0.00 37 1008.0
20260505175823 28 160 1.6 11.3 0.00 0.00 0.00 38 1008.1
20260505175319 27 187 3.2 9.7 0.00 0.00 0.00 40 1008.1
20260505174814 27 147 3.2 8.0 0.00 0.00 0.00 39 1008.3
20260505174310 27 160 3.2 9.7 0.00 0.00 0.00 38 1008.3
20260505173811 27 186 3.2 9.7 0.00 0.00 0.00 39 1008.3
20260505173328 27 121 3.2 11.3 0.00 0.00 0.00 41 1008.5
20260505172824 27 74 1.6 14.5 0.00 0.00 0.00 41 1008.6
20260505172320 27 218 6.4 14.5 0.00 0.00 0.00 41 1008.5
20260505171816 27 154 1.6 8.0 0.00 0.00 0.00 42 1008.6
20260505171312 27 123 1.6 9.7 0.00 0.00 0.00 40 1008.7
20260505170829 27 130 1.6 9.7 0.00 0.00 0.00 42 1008.8
20260505170326 27 355 1.6 19.3 0.00 0.00 0.00 43 1008.8
20260505165826 27 40 4.8 19.3 0.00 0.00 0.00 41 1008.8
20260505165322 27 148 3.2 6.4 0.00 0.00 0.00 42 1008.9
20260505164819 27 118 1.6 6.4 0.00 0.00 0.00 42 1008.9
20260505164315 27 194 1.6 12.9 0.00 0.00 0.00 42 1009.1
20260505163811 27 180 1.6 12.9 0.00 0.00 0.00 44 1009.1
20260505163328 26 211 1.6 9.7 0.00 0.00 0.00 44 1009.1
20260505162823 26 122 3.2 9.7 0.00 0.00 0.00 45 1009.3
20260505162323 26 223 3.2 6.4 0.00 0.00 0.00 46 1009.4
20260505161820 25 39 1.6 12.9 0.00 0.00 0.00 47 1009.3
20260505161316 25 26 1.6 12.9 0.00 0.00 0.00 45 1009.5
20260505160813 25 149 3.2 8.0 0.00 0.00 0.00 45 1009.6
20260505160330 26 174 1.6 14.5 0.00 0.00 0.00 45 1009.6
20260505153311 24 105 1.6 8.0 0.00 0.00 0.00 50 1009.8
20260505152825 24 9 3.2 8.0 0.00 0.00 0.00 46 1009.9
20260505152321 25 116 1.6 6.4 0.00 0.00 0.00 47 1010.0
20260505151818 25 152 1.6 12.9 0.00 0.00 0.00 48 1010.0
20260505151317 24 137 1.6 14.5 0.00 0.00 0.00 48 1009.9
20260505150813 24 84 1.6 6.4 0.00 0.00 0.00 49 1010.1
20260505150330 24 346 1.6 6.4 0.00 0.00 0.00 50 1010.0
20260505140315 21 126 4.8 17.7 0.00 0.00 0.00 54 1010.6
20260505130312 18 46 0.0 8.0 0.00 0.00 0.00 60 1010.5
20260505124824 18 84 1.6 6.4 0.00 0.00 0.00 62 1010.4
20260505124319 18 150 1.6 6.4 0.00 0.00 0.00 62 1010.1
20260505123815 18 130 1.6 4.8 0.00 0.00 0.00 64 1010.1
20260505123312 17 301 0.0 1.6 0.00 0.00 0.00 66 1010.1
20260505122829 17 149 0.0 1.6 0.00 0.00 0.00 66 1010.1
20260505122325 17 144 0.0 1.6 0.00 0.00 0.00 67 1010.1
20260505121825 17 157 0.0 0.0 0.00 0.00 0.00 67 1010.3
20260505121320 17 156 0.0 1.6 0.00 0.00 0.00 67 1010.2
20260505120815 17 154 0.0 1.6 0.00 0.00 0.00 68 1010.3
20260505120312 16 112 0.0 3.2 0.00 0.00 0.00 71 1010.2
20260505115829 16 101 0.0 3.2 0.00 0.00 0.00 73 1010.3
20260505115325 16 263 0.0 0.0 0.00 0.00 0.00 75 1010.4
20260505114821 15 263 0.0 3.2 0.00 0.00 0.00 77 1010.4
20260505114321 15 263 0.0 3.2 0.00 0.00 0.00 78 1010.3
20260505113818 14 252 0.0 1.6 0.00 0.00 0.00 78 1010.2
20260505113314 14 184 0.0 0.0 0.00 0.00 0.00 78 1010.2
20260505112811 14 184 0.0 0.0 0.00 0.00 0.00 78 1010.3
20260505112328 14 184 0.0 0.0 0.00 0.00 0.00 78 1010.2
20260505111824 14 184 0.0 0.0 0.00 0.00 0.00 77 1010.1
20260505111319 15 184 0.0 0.0 0.00 0.00 0.00 78 1010.1
20260505110819 15 185 0.0 0.0 0.00 0.00 0.00 77 1010.0
20260505110316 15 185 0.0 3.2 0.00 0.00 0.00 76 1009.9
20260505101827 15 336 1.6 6.4 0.00 0.00 0.00 68 1010.3
20260505101322 15 274 1.6 4.8 0.00 0.00 0.00 69 1010.1
20260505100818 15 281 0.0 9.7 0.00 0.00 0.00 70 1010.1
20260505100315 14 277 4.8 9.7 0.00 0.00 0.00 70 1010.0
20260505095815 14 326 1.6 4.8 0.00 0.00 0.00 71 1010.0
20260505095312 14 287 3.2 4.8 0.00 0.00 0.00 72 1009.9
20260505094829 14 293 1.6 4.8 0.00 0.00 0.00 72 1009.9
20260505094323 13 303 1.6 3.2 0.00 0.00 0.00 75 1009.9
20260505093820 12 266 0.0 4.8 0.00 0.00 0.00 78 1009.7
20260505093316 12 126 0.0 4.8 0.00 0.00 0.00 80 1009.8
20260505092811 12 109 0.0 4.8 0.00 0.00 0.00 80 1009.6
20260505092312 12 217 0.0 4.8 0.00 0.00 0.00 80 1009.7
20260505091828 12 159 0.0 0.0 0.00 0.00 0.00 79 1009.5
20260505091323 12 159 0.0 0.0 0.00 0.00 0.00 78 1009.6
20260505090819 12 159 0.0 0.0 0.00 0.00 0.00 77 1009.6
20260505090316 12 159 0.0 1.6 0.00 0.00 0.00 76 1009.2
20260505085812 12 158 0.0 3.2 0.00 0.00 0.00 76 1009.3
20260505085329 12 161 0.0 6.4 0.00 0.00 0.00 75 1009.1
20260505084825 13 144 1.6 6.4 0.00 0.00 0.00 74 1009.1
20260505084324 12 153 0.0 1.6 0.00 0.00 0.00 75 1009.1
20260505083821 12 190 0.0 3.2 0.00 0.00 0.00 77 1009.1
20260505083317 12 179 0.0 3.2 0.00 0.00 0.00 78 1009.3
20260505082812 12 188 0.0 0.0 0.00 0.00 0.00 79 1009.2
20260505082329 11 188 0.0 0.0 0.00 0.00 0.00 79 1009.3
20260505081825 11 188 0.0 0.0 0.00 0.00 0.00 79 1009.2
20260505081321 12 188 0.0 0.0 0.00 0.00 0.00 79 1009.2
20260505080821 12 186 0.0 1.6 0.00 0.00 0.00 78 1009.1
20260505080318 12 184 0.0 1.6 0.00 0.00 0.00 78 1009.3
20260505075814 12 155 0.0 0.0 0.00 0.00 0.00 78 1009.3
20260505075329 12 138 0.0 1.6 0.00 0.00 0.00 78 1009.5
20260505074826 12 138 0.0 1.6 0.00 0.00 0.00 77 1009.4
20260505074321 12 140 0.0 3.2 0.00 0.00 0.00 77 1009.2
20260505073816 12 144 1.6 3.2 0.00 0.00 0.00 78 1009.2
20260505073317 12 5 0.0 0.0 0.00 0.00 0.00 78 1009.3
20260505072812 12 5 0.0 1.6 0.00 0.00 0.00 78 1009.3
20260505072328 12 335 0.0 1.6 0.00 0.00 0.00 78 1009.2
20260505071824 13 14 0.0 0.0 0.00 0.00 0.00 77 1009.1
20260505071320 13 14 0.0 1.6 0.00 0.00 0.00 76 1009.2
20260505070816 13 14 0.0 3.2 0.00 0.00 0.00 75 1009.2
20260505070313 13 11 0.0 3.2 0.00 0.00 0.00 74 1009.2
20260505065812 14 79 0.0 1.6 0.00 0.00 0.00 70 1009.3
20260505065329 14 79 0.0 1.6 0.00 0.00 0.00 70 1009.3
20260505064825 14 75 0.0 3.2 0.00 0.00 0.00 69 1009.4
20260505064320 14 86 0.0 3.2 0.00 0.00 0.00 69 1009.4
20260505063816 14 145 0.0 3.2 0.00 0.00 0.00 69 1009.4
20260505063313 14 291 0.0 1.6 0.00 0.00 0.00 69 1009.4
20260505062829 14 263 0.0 4.8 0.00 0.00 0.00 69 1009.4
20260505062329 14 187 0.0 6.4 0.00 0.00 0.00 69 1009.5
20260505061825 14 11 1.6 6.4 0.00 0.00 0.00 71 1009.5
20260505061319 13 53 1.6 8.0 0.00 0.00 0.00 72 1009.4
20260505060816 13 69 1.6 9.7 0.00 0.00 0.00 73 1009.4
20260505060312 12 105 0.0 6.4 0.00 0.00 0.00 74 1009.4
20260505055828 12 75 1.6 6.4 0.00 0.00 0.00 74 1009.4
20260505055325 12 146 1.6 3.2 0.00 0.00 0.00 74 1009.5
20260505054826 12 113 0.0 0.0 0.00 0.00 0.00 72 1009.5
20260505054321 13 113 0.0 0.0 0.00 0.00 0.00 71 1009.6
20260505053817 13 113 0.0 0.0 0.00 0.00 0.00 69 1009.6
20260505053314 13 113 0.0 0.0 0.00 0.00 0.00 69 1009.6
20260505052828 13 113 0.0 0.0 0.00 0.00 0.00 68 1009.6
20260505052325 13 113 0.0 0.0 0.00 0.00 0.00 68 1009.6
20260505051822 13 113 0.0 0.0 0.00 0.00 0.00 68 1009.7
20260505051322 13 113 0.0 0.0 0.00 0.00 0.00 67 1009.8
20260505050817 13 113 0.0 0.0 0.00 0.00 0.00 67 1009.8
20260505050314 13 113 0.0 1.6 0.00 0.00 0.00 67 1009.8
20260505041322 13 104 0.0 0.0 0.00 0.00 0.00 67 1010.0
20260505040314 13 104 0.0 0.0 0.00 0.00 0.00 65 1009.8
20260505035813 13 104 0.0 0.0 0.00 0.00 0.00 63 1009.8
20260505035329 13 104 0.0 0.0 0.00 0.00 0.00 60 1009.8
20260505034826 14 104 0.0 0.0 0.00 0.00 0.00 59 1009.8
20260505034321 14 104 0.0 0.0 0.00 0.00 0.00 59 1009.8
20260505033818 14 104 0.0 0.0 0.00 0.00 0.00 58 1009.7
20260505033315 14 104 0.0 0.0 0.00 0.00 0.00 58 1009.8
20260505032810 14 104 0.0 0.0 0.00 0.00 0.00 57 1009.9
20260505032311 14 104 0.0 0.0 0.00 0.00 0.00 57 1009.9
20260505031827 15 104 0.0 0.0 0.00 0.00 0.00 57 1009.9
20260505031321 15 104 0.0 0.0 0.00 0.00 0.00 57 1009.9
20260505030818 15 104 0.0 0.0 0.00 0.00 0.00 57 1010.0
20260505030315 14 104 0.0 0.0 0.00 0.00 0.00 57 1010.0
20260505025829 14 104 0.0 0.0 0.00 0.00 0.00 57 1010.0
20260505025326 14 104 0.0 0.0 0.00 0.00 0.00 57 1010.1
20260505024823 14 104 0.0 0.0 0.00 0.00 0.00 58 1010.1
20260505024322 14 104 0.0 0.0 0.00 0.00 0.00 58 1010.1
20260505023817 14 104 0.0 0.0 0.00 0.00 0.00 58 1010.1
20260505023314 14 104 0.0 0.0 0.00 0.00 0.00 60 1010.2
20260505022829 15 104 0.0 0.0 0.00 0.00 0.00 59 1010.1
20260505022325 15 104 0.0 0.0 0.00 0.00 0.00 56 1010.1
20260505021822 15 104 0.0 0.0 0.00 0.00 0.00 55 1010.1
20260505021319 15 104 0.0 1.6 0.00 0.00 0.00 56 1010.1
20260505020818 15 104 0.0 1.6 0.00 0.00 0.00 56 1010.2
20260505020315 16 104 0.0 0.0 0.00 0.00 0.00 54 1010.2
20260505015829 16 104 0.0 0.0 0.00 0.00 0.00 53 1010.2
20260505015325 16 104 0.0 0.0 0.00 0.00 0.00 53 1010.2
20260505014821 16 104 0.0 1.6 0.00 0.00 0.00 52 1010.1
20260505014317 16 104 0.0 1.6 0.00 0.00 0.00 52 1010.1
20260505013813 16 104 0.0 3.2 0.00 0.00 0.00 52 1010.0
20260505013314 16 104 0.0 3.2 0.00 0.00 0.00 51 1009.9
20260505012810 16 184 0.0 3.2 0.00 0.00 0.00 51 1009.9
20260505012326 17 184 0.0 0.0 0.00 0.00 0.00 50 1009.7
20260505011823 17 184 0.0 0.0 0.00 0.00 0.00 49 1009.7
20260505011319 17 184 0.0 0.0 0.00 0.00 0.00 48 1009.7
20260505010814 17 184 0.0 0.0 0.00 0.00 0.00 48 1009.6
20260505010311 17 184 0.0 3.2 0.00 0.00 0.00 47 1009.5
20260505005830 17 184 0.0 3.2 0.00 0.00 0.00 47 1009.5
20260505005327 17 146 0.0 1.6 0.00 0.00 0.00 47 1009.4
20260505004823 17 140 0.0 3.2 0.00 0.00 0.00 47 1009.4
20260505004318 17 140 0.0 3.2 0.00 0.00 0.00 47 1009.4
20260505003814 18 90 0.0 3.2 0.00 0.00 0.00 46 1009.3
20260505003311 18 151 0.0 3.2 0.00 0.00 0.00 46 1009.1
20260505002827 18 155 0.0 0.0 0.00 0.00 0.00 45 1009.2
20260505002328 18 155 0.0 0.0 0.00 0.00 0.00 46 1009.1
20260505001824 18 155 0.0 0.0 0.00 0.00 0.00 45 1009.0
20260505001319 18 173 0.0 3.2 0.00 0.00 0.00 45 1009.1
20260505000814 18 173 0.0 3.2 0.00 0.00 0.00 45 1009.0
20260505000310 18 188 0.0 3.2 0.00 0.00 0.00 44 1008.9
20260504235827 18 122 1.6 3.2 0.00 0.00 0.00 44 1008.9
20260504235323 18 167 0.0 1.6 0.00 0.00 0.00 43 1008.7
20260504234823 19 186 0.0 1.6 0.00 0.00 0.00 43 1008.6
20260504234319 19 171 0.0 1.6 0.00 0.00 0.00 43 1008.5
20260504233815 19 171 0.0 1.6 0.00 0.00 0.00 43 1008.5
20260504233312 19 137 0.0 0.0 0.00 0.00 0.00 42 1008.5
20260504232828 20 137 0.0 3.2 0.00 0.00 0.00 41 1008.4
20260504232324 20 137 0.0 6.4 0.00 0.00 0.00 41 1008.3
20260504231820 20 191 1.6 6.4 0.00 0.00 0.00 40 1008.4
20260504231320 20 202 1.6 4.8 0.00 0.00 0.00 40 1008.2
20260504230816 20 98 0.0 4.8 0.00 0.00 0.00 40 1008.2
20260504230312 20 135 1.6 4.8 0.00 0.00 0.00 40 1008.1
20260504225828 20 153 0.0 6.4 0.00 0.00 0.00 40 1008.0
20260504225325 20 99 1.6 6.4 0.00 0.00 0.00 39 1008.0
20260504224821 20 193 0.0 3.2 0.00 0.00 0.00 39 1008.0
20260504224316 21 149 0.0 3.2 0.00 0.00 0.00 38 1008.0
20260504223816 21 193 0.0 3.2 0.00 0.00 0.00 38 1008.1
20260504223313 21 144 0.0 3.2 0.00 0.00 0.00 39 1008.1
20260504222829 21 146 0.0 4.8 0.00 0.00 0.00 37 1008.1
20260504222326 21 146 0.0 3.2 0.00 0.00 0.00 37 1008.1
20260504221821 21 88 0.0 12.9 0.00 0.00 0.00 38 1008.2
20260504221316 21 179 1.6 6.4 0.00 0.00 0.00 37 1008.3
20260504220813 21 135 1.6 6.4 0.00 0.00 0.00 37 1008.2
20260504220314 21 240 0.0 4.8 0.00 0.00 0.00 38 1008.3
20260504215829 21 163 1.6 4.8 0.00 0.00 0.00 37 1008.3
20260504215325 21 173 1.6 6.4 0.00 0.00 0.00 37 1008.3
20260504214821 21 218 1.6 6.4 0.00 0.00 0.00 39 1008.3
20260504214317 21 108 1.6 8.0 0.00 0.00 0.00 37 1008.4
20260504213814 21 150 1.6 8.0 0.00 0.00 0.00 37 1008.6
20260504213310 21 241 1.6 8.0 0.00 0.00 0.00 37 1008.6
20260504212825 22 108 3.2 9.7 0.00 0.00 0.00 36 1008.6
20260504212326 22 96 1.6 9.7 0.00 0.00 0.00 36 1008.6
20260504211822 22 282 4.8 8.0 0.00 0.00 0.00 35 1008.6
20260504211318 22 32 1.6 4.8 0.00 0.00 0.00 35 1008.5
20260504210814 22 11 1.6 4.8 0.00 0.00 0.00 36 1008.6
20260504210311 22 5 1.6 12.9 0.00 0.00 0.00 36 1008.5
20260504205827 22 173 1.6 12.9 0.00 0.00 0.00 35 1008.6
20260504205323 22 329 3.2 9.7 0.00 0.00 0.00 34 1008.6
20260504204823 22 189 0.0 16.1 0.00 0.00 0.00 36 1008.6
20260504204319 22 339 3.2 24.1 0.00 0.00 0.00 35 1008.6
20260504203815 22 49 1.6 4.8 0.00 0.00 0.00 37 1008.4
20260504203312 22 182 1.6 9.7 0.00 0.00 0.00 34 1008.5
20260504202828 22 317 1.6 9.7 0.00 0.00 0.00 35 1008.5
20260504202324 23 224 3.2 6.4 0.00 0.00 0.00 34 1008.5
20260504201820 22 198 1.6 12.9 0.00 0.00 0.00 35 1008.6
20260504201320 22 203 3.2 16.1 0.00 0.00 0.00 33 1008.6